EN

Hourly Weather Gogoliha

Today, 16 May, Sunday

Time Temperature Precipitation Wind Pressure Humidity
00:00 +20°C° 0 mm 3 mps 755 mmHg 50%
01:00 +19°C° 0 mm 3 mps 755 mmHg 51%
02:00 +19°C° 0 mm 3 mps 755 mmHg 52%
03:00 +18°C° 0 mm 3 mps 755 mmHg 53%
04:00 +19°C° 0 mm 4 mps 755 mmHg 55%
05:00 +20°C° 0 mm 4 mps 755 mmHg 57%
06:00 +20°C° 0 mm 4 mps 755 mmHg 59%
07:00 +22°C° 0 mm 5 mps 755 mmHg 54%
08:00 +25°C° 0 mm 5 mps 755 mmHg 49%
09:00 +27°C° 0 mm 6 mps 755 mmHg 44%
10:00 +28°C° 0 mm 6 mps 755 mmHg 40%
11:00 +30°C° 0 mm 6 mps 755 mmHg 37%
12:00 +32°C° 0 mm 6 mps 755 mmHg 33%
13:00 +32°C° 0 mm 6 mps 755 mmHg 34%
14:00 +32°C° 0 mm 6 mps 754 mmHg 34%
15:00 +32°C° 0 mm 6 mps 754 mmHg 35%
16:00 +29°C° 0 mm 5 mps 754 mmHg 40%
17:00 +28°C° 0 mm 4 mps 754 mmHg 45%
18:00 +26°C° 0 mm 3 mps 754 mmHg 50%
19:00 +25°C° 0 mm 3 mps 754 mmHg 50%
20:00 +22°C° 0 mm 3 mps 754 mmHg 49%
21:00 +21°C° 0 mm 2 mps 754 mmHg 49%
22:00 +20°C° 0 mm 2 mps 754 mmHg 50%
23:00 +20°C° 0 mm 2 mps 754 mmHg 51%

Tomorrow, 17 May, Monday

Time Temperature Precipitation Wind Pressure Humidity
00:00 +19°C° 0 mm 2 mps 754 mmHg 52%
01:00 +19°C° 0 mm 3 mps 754 mmHg 54%
02:00 +19°C° 0 mm 3 mps 754 mmHg 56%
03:00 +18°C° 0 mm 3 mps 754 mmHg 58%
04:00 +19°C° 0 mm 3 mps 755 mmHg 60%
05:00 +19°C° 0 mm 2 mps 755 mmHg 62%
06:00 +20°C° 0 mm 2 mps 755 mmHg 64%
07:00 +22°C° 0 mm 3 mps 755 mmHg 58%
08:00 +25°C° 0 mm 3 mps 755 mmHg 53%
09:00 +27°C° 0 mm 4 mps 755 mmHg 47%
10:00 +28°C° 0 mm 4 mps 755 mmHg 43%
11:00 +30°C° 0 mm 4 mps 755 mmHg 39%
12:00 +32°C° 0 mm 4 mps 755 mmHg 36%
13:00 +32°C° 0 mm 4 mps 755 mmHg 36%
14:00 +32°C° 0 mm 4 mps 755 mmHg 36%
15:00 +32°C° 0 mm 4 mps 755 mmHg 36%
16:00 +30°C° 0 mm 3 mps 755 mmHg 42%
17:00 +29°C° 0 mm 2 mps 755 mmHg 48%
18:00 +28°C° 0 mm 1 mps 755 mmHg 54%
19:00 +26°C° 0 mm 1 mps 755 mmHg 55%
20:00 +24°C° 0 mm 2 mps 755 mmHg 56%
21:00 +21°C° 0 mm 2 mps 755 mmHg 57%
22:00 +21°C° 0 mm 2 mps 755 mmHg 58%
23:00 +20°C° 0 mm 2 mps 755 mmHg 59%

Day after tomorrow, 18 May, Tuesday

Time Temperature Precipitation Wind Pressure Humidity
00:00 +19°C° 0 mm 2 mps 755 mmHg 61%
01:00 +19°C° 0 mm 2 mps 755 mmHg 63%
02:00 +19°C° 0 mm 2 mps 755 mmHg 65%
03:00 +19°C° 0 mm 1 mps 755 mmHg 67%
04:00 +20°C° 0 mm 1 mps 755 mmHg 65%
05:00 +21°C° 0 mm 1 mps 755 mmHg 63%
06:00 +22°C° 0 mm 1 mps 755 mmHg 61%
07:00 +24°C° 0 mm 1 mps 755 mmHg 56%
08:00 +26°C° 0 mm 1 mps 756 mmHg 51%
09:00 +27°C° 0 mm 2 mps 756 mmHg 47%
10:00 +28°C° 0 mm 2 mps 756 mmHg 44%
11:00 +29°C° 0 mm 2 mps 755 mmHg 42%
12:00 +30°C° 0 mm 2 mps 755 mmHg 39%
13:00 +31°C° 0 mm 2 mps 755 mmHg 39%
14:00 +31°C° 0 mm 2 mps 755 mmHg 39%
15:00 +31°C° 0 mm 2 mps 755 mmHg 38%
16:00 +30°C° 0 mm 3 mps 755 mmHg 45%
17:00 +28°C° 0 mm 4 mps 755 mmHg 53%
18:00 +27°C° 0 mm 4 mps 755 mmHg 60%
19:00 +25°C° 0.1 mm 4 mps 755 mmHg 63%
20:00 +23°C° 0.1 mm 4 mps 755 mmHg 66%
21:00 +21°C° 0.1 mm 3 mps 755 mmHg 69%
22:00 +20°C° 0 mm 3 mps 755 mmHg 69%
23:00 +19°C° 0 mm 3 mps 755 mmHg 70%

19 May, Wednesday

Time Temperature Precipitation Wind Pressure Humidity
00:00 +19°C° 0 mm 4 mps 755 mmHg 70%
01:00 +18°C° 0 mm 4 mps 755 mmHg 71%
02:00 +18°C° 0 mm 4 mps 755 mmHg 71%
03:00 +17°C° 0 mm 4 mps 755 mmHg 72%
04:00 +18°C° 0 mm 4 mps 756 mmHg 72%
05:00 +18°C° 0 mm 4 mps 756 mmHg 71%
06:00 +18°C° 0 mm 4 mps 756 mmHg 71%
07:00 +20°C° 0 mm 4 mps 756 mmHg 64%
08:00 +22°C° 0 mm 5 mps 755 mmHg 58%
09:00 +23°C° 0 mm 5 mps 755 mmHg 52%
10:00 +25°C° 0 mm 5 mps 755 mmHg 48%
11:00 +26°C° 0 mm 5 mps 755 mmHg 44%
12:00 +27°C° 0 mm 5 mps 755 mmHg 39%
13:00 +28°C° 0 mm 5 mps 755 mmHg 39%
14:00 +28°C° 0 mm 5 mps 755 mmHg 38%
15:00 +28°C° 0 mm 5 mps 754 mmHg 38%
16:00 +27°C° 0 mm 4 mps 754 mmHg 44%
17:00 +26°C° 0 mm 4 mps 754 mmHg 50%
18:00 +25°C° 0 mm 3 mps 753 mmHg 56%
19:00 +23°C° 0 mm 4 mps 753 mmHg 59%
20:00 +22°C° 0 mm 4 mps 753 mmHg 61%
21:00 +20°C° 0 mm 5 mps 754 mmHg 63%
22:00 +20°C° 0 mm 5 mps 754 mmHg 62%
23:00 +20°C° 0 mm 6 mps 754 mmHg 61%

20 May, Thursday

Time Temperature Precipitation Wind Pressure Humidity
00:00 +19°C° 0 mm 6 mps 754 mmHg 60%
01:00 +19°C° 0 mm 6 mps 754 mmHg 60%
02:00 +17°C° 0 mm 5 mps 754 mmHg 60%
03:00 +16°C° 0 mm 5 mps 754 mmHg 60%
04:00 +17°C° 0 mm 5 mps 754 mmHg 61%
05:00 +17°C° 0 mm 5 mps 754 mmHg 62%
06:00 +17°C° 0 mm 6 mps 754 mmHg 64%
07:00 +20°C° 0 mm 6 mps 754 mmHg 61%
08:00 +21°C° 0 mm 6 mps 754 mmHg 59%
09:00 +22°C° 0 mm 7 mps 754 mmHg 56%
10:00 +23°C° 0 mm 6 mps 754 mmHg 57%
11:00 +23°C° 0 mm 6 mps 754 mmHg 57%
12:00 +23°C° 0 mm 6 mps 754 mmHg 58%
13:00 +20°C° 0.3 mm 5 mps 754 mmHg 68%
14:00 +18°C° 0.3 mm 4 mps 755 mmHg 77%
15:00 +16°C° 0.3 mm 3 mps 755 mmHg 87%
16:00 +17°C° 0 mm 4 mps 755 mmHg 85%
17:00 +18°C° 0 mm 4 mps 754 mmHg 82%
18:00 +19°C° 0 mm 4 mps 754 mmHg 80%
19:00 +18°C° 0.1 mm 4 mps 754 mmHg 83%
20:00 +17°C° 0.1 mm 4 mps 754 mmHg 85%
21:00 +15°C° 0.1 mm 4 mps 754 mmHg 87%
22:00 +14°C° 0 mm 4 mps 754 mmHg 88%
23:00 +14°C° 0 mm 3 mps 754 mmHg 88%

21 May, Friday

Time Temperature Precipitation Wind Pressure Humidity
00:00 +13°C° 0 mm 3 mps 755 mmHg 88%
01:00 +13°C° 0 mm 3 mps 755 mmHg 88%
02:00 +12°C° 0 mm 3 mps 755 mmHg 88%
03:00 +12°C° 0 mm 3 mps 755 mmHg 87%
04:00 +13°C° 0 mm 3 mps 756 mmHg 83%
05:00 +14°C° 0 mm 3 mps 756 mmHg 79%
06:00 +16°C° 0 mm 3 mps 756 mmHg 75%
07:00 +17°C° 0 mm 4 mps 757 mmHg 69%
08:00 +19°C° 0 mm 4 mps 757 mmHg 64%
09:00 +20°C° 0 mm 4 mps 757 mmHg 58%
10:00 +21°C° 0 mm 4 mps 757 mmHg 53%
11:00 +23°C° 0 mm 4 mps 757 mmHg 49%
12:00 +25°C° 0 mm 4 mps 757 mmHg 45%
13:00 +25°C° 0 mm 4 mps 757 mmHg 43%
14:00 +26°C° 0 mm 4 mps 757 mmHg 42%
15:00 +26°C° 0 mm 4 mps 757 mmHg 40%
16:00 +25°C° 0 mm 3 mps 757 mmHg 46%
17:00 +24°C° 0 mm 2 mps 757 mmHg 52%
18:00 +23°C° 0 mm 1 mps 756 mmHg 58%
19:00 +22°C° 0 mm 1 mps 756 mmHg 59%
20:00 +20°C° 0 mm 2 mps 756 mmHg 60%
21:00 +19°C° 0 mm 2 mps 756 mmHg 60%
22:00 +19°C° 0 mm 2 mps 756 mmHg 61%
23:00 +18°C° 0 mm 3 mps 756 mmHg 63%
Show more